Regional Weather Roundup
Issued by NWS

Home | Current Version | Previous Version | Text Only | Print | Product List | Glossary Off
Versions: 1 2 3 4 5 6 7 8 9 10 11 12 13 14 15 16 17 18 19 20 21 22 23 24 25 26 27 28 29 30 31 32 33 34 35 36 37 38 39 40 41 42 43 44 45 46 47 48 49 50

000
ASUS43 KLOT 281510
RWRIL

ILLINOIS REGIONAL WEATHER ROUNDUP
NATIONAL WEATHER SERVICE CHICAGO/ROMEOVILLE IL
ISSUED BY NATIONAL WEATHER SERVICE LINCOLN IL
1000 AM CDT THU JUL 28 2016

NOTE:  "FAIR" INDICATES FEW OR NO CLOUDS BELOW 12,000 FEET...WITH
       NO SIGNIFICANT WEATHER AND/OR OBSTRUCTIONS TO VISIBILITY.

       STATIONS INDICATED WITH AN "*" ARE NOT UNDER NWS QUALITY
       CONTROL AND MAY ALSO NOT REPORT PRECIPITATION OR OBSTRUCTIONS
       TO VISIBILITY.

ILZ001-002-007-009-015-016-024-281600-
NORTHWEST ILLINOIS...

CITY           SKY/WX    TMP DP  RH WIND       PRES   REMARKS
MOLINE         SUNNY     83  69  62 W5        29.89F HX  86
SAVANNA*       MOSUNNY   79  72  78 CALM      29.90S HX  82
STERLING*      MOSUNNY   82  73  74 VRB5      29.90F HX  87
$$

ILZ003-004-008-010-011-017>019-281600-
NORTH CENTRAL ILLINOIS...

CITY           SKY/WX    TMP DP  RH WIND       PRES   REMARKS
ROCKFORD       MOSUNNY   79  69  71 E5        29.91F HX  81
FREEPORT*      MOSUNNY   77  71  83 NE3       29.93S
ROCHELLE*      SUNNY     80  73  78 CALM      29.91S HX  84
DE KALB*       SUNNY     81  73  76 E5        29.92S HX  85
LASALLE PERU*  MOSUNNY   81  73  75 S6        29.90F HX  86
$$

ILZ005-006-012>014-020>023-281600-
NORTHEAST ILLINOIS...

CITY           SKY/WX    TMP DP  RH WIND       PRES   REMARKS
O`HARE         CLOUDY    81  70  69 NE8       29.90F HX  84
MIDWAY         MOSUNNY   83  70  64 SE8       29.90F HX  87
NORTHERLY IS*  NOT AVBL
AURORA*        SUNNY     83  71  67 SE5       29.91F HX  87
LANSING*       CLOUDY    80  67  65 CALM      29.91S HX  82
JOLIET*        MOSUNNY   82  73  72 S5        29.91S HX  87
WAUKEGAN       PTSUNNY   77  71  82 E7        29.91F
WEST CHICAGO   SUNNY     82  69  64 CALM      29.90F HX  85
WHEELING       PTSUNNY   77  71  82 E7        29.92F
KANKAKEE*      CLOUDY    78  69  75 SE3       29.92S HX  80
MORRIS*        SUNNY     81  73  76 S3        29.90F HX  85
ROMEOVILLE     MOSUNNY   81  68  65 S6        29.90F HX  83
$$

LMZ740>745-777-779-281600-
SOUTHERN LAKE MICHIGAN...

STATION/POSITION TIME  TEMP    WIND        PRES    WAVE
                       AIR SEA DIR/SP/G            HT/PER
                 (UTC) (F)     (DEG/KT/KT) (MB)    (FT/S)
SOUTHERN BUOY    1450   74 75  100/  4/  6 1012.2F   1
WAUKEGAN HARBOR  1400   68      30/  9/ 10   N/A
WILMETTE HARBOR  1500   74 71   90/  2/  4   N/A     1/ 2
MONTROSE BEACH   NOT AVBL
NORTHERLY ISLAND 1500   77     100/  2/  4   N/A
HARRISON CRIB    1400   76      90/  8/  9   N/A
CALUMET HARBOR   1400   76      50/  3/  4 1012.5F
CALUMET BEACH    NOT AVBL
BURNS HARBOR     1400   77      70/  5/  6 1013.5F
MICHIGAN CITY    1500   78 78   60/  2/  2   N/A     1
$$

ILZ025>027-034>036-040-047-049-050-058-095>099-281600-
WEST CENTRAL ILLINOIS...

CITY           SKY/WX    TMP DP  RH WIND       PRES   REMARKS
GALESBURG*     SUNNY     79  70  73 NW9       29.91S HX  82
MACOMB*        SUNNY     79  71  75 NW9       29.94S HX  82
JACKSONVILLE*  PTSUNNY   79  73  82 W6        29.91S HX  82
MOUNT STERLING SUNNY     78  71  78 N6        29.91F HX  81
PITTSFIELD*    SUNNY     79  71  76 NW5       29.93F HX  82
QUINCY         SUNNY     80  73  79 NW6       29.92F HX  84
$$

ILZ028>032-037-038-041>044-048-051>054-059>061-281600-
CENTRAL ILLINOIS...

CITY           SKY/WX    TMP DP  RH WIND       PRES   REMARKS
BLOOMINGTON*   MOSUNNY   78  70  76 SE7       29.92F HX  80
DECATUR        MOSUNNY   79  72  79 SE8       29.91F HX  82
LACON*         PTSUNNY   79  72  80 E3        29.90S HX  82
LINCOLN*       CLOUDY    79  74  85 CALM      29.90F HX  82
LITCHFIELD*      N/A    N/A N/A N/A MISG        N/A
PEORIA         CLOUDY    82  73  74 CALM      29.90S HX  87
PONTIAC*       PTSUNNY   80  74  81 SE7       29.92S HX  84
SPRINGFIELD    MOSUNNY   83  74  74 NE3       29.91R HX  89
TAYLORVILLE*   PTSUNNY   80  75  85 MISG      29.90F HX  85
$$

ILZ033-039-045-046-055>057-062-063-281600-
EAST CENTRAL ILLINOIS...

CITY           SKY/WX    TMP DP  RH WIND       PRES   REMARKS
CHAMPAIGN      CLOUDY    73  69  87 CALM      29.92S
DANVILLE*      RAIN      72  72  98 CALM      29.89F
MATTOON        CLOUDY    72  64  76 NE8       29.92S
PARIS*         CLOUDY    76  75  96 NW5       29.92S FOG
RANTOUL*       NOT AVBL
$$

ILZ064-065-069-070-074-075-100>102-281600-
SOUTHWEST AND SOUTH CENTRAL ILLINOIS...

CITY           SKY/WX    TMP DP  RH WIND       PRES   REMARKS
ALTON          MOSUNNY   81  73  78 NW6       29.91  HX  85
BELLEVILLE     NOT AVBL
CENTRALIA*     CLOUDY    80  76  86 SE3       29.90F HX  86
EAST ST LOUIS  SUNNY     84  74  71 W3        29.89F HX  91
MT VERNON*     PTSUNNY   79  72  78 MISG      29.90F HX  82
SALEM*         CLOUDY    80  73  80 CALM      29.90F HX  84
$$

ILZ066>068-071>073-076>078-281600-
SOUTHEAST ILLINOIS...

CITY           SKY/WX    TMP DP  RH WIND       PRES   REMARKS
CARMI*         CLOUDY    76  74  92 CALM      29.92S
EFFINGHAM*     CLOUDY    77  75  95 CALM      29.93S
FAIRFIELD*     CLOUDY    76  74  92 CALM      29.91S
FLORA*         CLOUDY    78  75  89 CALM      29.92R HX  81
LAWRENCEVILLE  CLOUDY    78  73  84 S7        29.91F HX  81
MT CARMEL*     CLOUDY    77  72  86 S3        29.91F
OLNEY-NOBLE*   CLOUDY    77  73  88 CALM      29.93R
ROBINSON*      CLOUDY    77  73  88 CALM      29.92F
$$

ILZ079>094-281600-
FAR SOUTHERN ILLINOIS...

CITY           SKY/WX    TMP DP  RH WIND       PRES   REMARKS
CARBONDALE     MOSUNNY   80  72  76 CALM      29.91F HX  84
CAIRO          CLOUDY    77  75  92 CALM      29.93S
HARRISBURG*    CLOUDY    76  75  95 SW5       29.93R
MARION         PTSUNNY   79  75  89 SW7       29.93S HX  82
METROPOLIS*    CLOUDY    78  75  90 SW6       29.94S HX  80
SPARTA*        SUNNY     80  73  80 W3        29.92S HX  84
$$

ABBREVIATIONS USED IN REMARKS:
       TC -- TEMPERATURE IN CELSIUS
      WCI -- WIND CHILL INDEX
       HX -- HEAT INDEX
      VSB -- VISIBILITY IN MILES



USA.gov is the U.S. government's official web portal to all federal, state and local government web resources and services.